Regional Weather Roundup
Issued by NWS

Home | Current Version | Previous Version | Text Only | Print | Product List | Glossary Off
Versions: 1 2 3 4 5 6 7 8 9 10 11 12 13 14 15 16 17 18 19 20 21 22 23 24 25 26 27 28 29 30 31 32 33 34 35 36 37 38 39 40 41 42 43 44 45 46 47 48 49 50

000
ASUS45 KABQ 272210
RWRNM
NEW MEXICO REGIONAL WEATHER ROUNDUP
NATIONAL WEATHER SERVICE ALBUQUERQUE NM
400 PM MDT WED APR 27 2016

NOTE: "FAIR" MEANS FEW OR NO CLOUDS BELOW 12,000 FEET AGL WITH NO
       SIGNIFICANT WEATHER OR OBSTRUCTIONS TO VISION.

      THIS PRODUCT IS RELEASED AS TWO VERSIONS.  ONE VERSION NEAR
      THE TOP OF THE HOUR CONTAINING PRELIMINARY DATA FROM ALBUQUERQUE
      AND OTHER STATIONS.  A FINAL VERSION WITH ADDITIONAL DATA IS
      ISSUED ABOUT 10 MINUTES AFTER THE HOUR.

NMZ501-503-504-510>518-272300-
NORTHWEST PLATEAU/NORTHCENTRAL MOUNTAINS

CITY           SKY/WX    TMP DP  RH WIND       PRES   REMARKS
FARMINGTON     CLOUDY    61  25  25 W12       29.78F
LOS ALAMOS     CLOUDY    57  22  25 NW8       29.83F
SANTA FE       FAIR      65  22  19 W17G30    29.79F
TAOS           FAIR      59  21  23 W10       29.82F
ANGEL FIRE     FAIR      51  22  31 W15G26    29.85F

$$
NMZ402-403-502-505>509-272300-
WESTCENTRAL MOUNTAINS/SOUTHWEST MOUNTAINS

CITY           SKY/WX    TMP DP  RH WIND       PRES   REMARKS
GALLUP         PTSUNNY   62  23  22 SW16G25   29.83F
GRANTS         CLOUDY    62  21  20 SW7G16    29.83F
SILVER CITY      N/A     66  16  14 SW13G21   29.87F

$$
NMZ407-409-411-412-272300-
SOUTHERN DESERTS

CITY           SKY/WX    TMP DP  RH WIND       PRES   REMARKS
LORDSBURG      FAIR      73  18  12 W13G22    29.80F
DEMING         FAIR      77  16  10 W20G30    29.79F
LAS CRUCES     FAIR      75  15  10 SW10G23   29.81F
HOLLOMAN AFB   FAIR      74  17  11 S8        29.76F
ALAMOGORDO     FAIR      73  16  11 SE6G17    29.78F
T OR C         FAIR      74  17  11 S13G25    29.75F

$$
NMZ519>523-272300-
CENTRAL VALLEYS/CENTRAL HIGHLANDS

CITY           SKY/WX    TMP DP  RH WIND       PRES   REMARKS
ALBUQUERQUE    PTSUNNY   66  24  20 W3        29.77F
DOUBLE EAGLE   PTSUNNY   64  25  22 SW6       29.80F
MORIARTY ARPT  FAIR      66  19  16 W13G20    29.82F
CLINES CORNERS FAIR      62  22  21 W20G36    29.81F
BELEN          FAIR      71  15  12 SW15G23   29.76F
SOCORRO        FAIR      72  20  14 E9        29.74F

$$
NMZ524>526-539-540-272300-
SOUTHCENTRAL MOUNTAINS

CITY           SKY/WX    TMP DP  RH WIND       PRES   REMARKS
RUIDOSO          N/A     63  18  17 SW7G17    29.88F

$$
NMZ527>531-272300-
NORTHEAST HIGHLANDS/NORTHEAST PLAINS

CITY           SKY/WX    TMP DP  RH WIND       PRES   REMARKS
LAS VEGAS      FAIR      63  18  17 W13G31    29.76F
RATON          PTSUNNY   63  15  15 S14       29.72S
CLAYTON        FAIR      64  32  30 SE16G23   29.76F

$$
NMZ532>537-272300-
EASTCENTRAL PLAINS

CITY           SKY/WX    TMP DP  RH WIND       PRES   REMARKS
TUCUMCARI      FAIR      74  26  16 E15       29.68F
CANNON AFB     FAIR      75  24  15 W17G24    29.73S
CLOVIS AIRPORT FAIR      73  28  19 SW16G25   29.74F

$$
NMZ028-029-538-272300-
SOUTHEAST PLAINS

CITY           SKY/WX    TMP DP  RH WIND       PRES   REMARKS
ROSWELL        FAIR      80  22  11 S7        29.69F
ARTESIA        FAIR      81  21  11 SW14G21   29.70F
CARLSBAD       FAIR      83  17   8 W17G26    29.71F
HOBBS          SUNNY     77  18  10 SW13G20   29.76F


$$




USA.gov is the U.S. government's official web portal to all federal, state and local government web resources and services.